Header for Extended Forecast Station List Page

Search by: ID | Name | Date | Parm | Value | Avg | % Avg
Sort by: ID | Name | Date | Parm | Value | Avg | % Avg

Enter search or view all records.

Click on id for station plot
#IDNameDateParmValueAvg% Avg
0LYDM8KOOTENAI-LIBBY DAM09-26-2022INFLOW (KAF)861101385
1LEOI1KOOTENAI-AT LEONIA09-26-2022DISCHARGE (KAF)26482644100
2BFEI1KOOTENAI-AT BONNERS FERRY09-26-2022STAGE (FT)MMM
3FCFM8NF FLATHEAD-NEAR COLUMBIA FALLS09-26-2022DISCHARGE (KAF)14319773
4WGCM8MF FLATHEAD-NEAR WEST GLACIER09-26-2022DISCHARGE (KAF)7417044
5HHWM8SF FLATHEAD-HUNGRY HORSE DAM09-26-2022INFLOW (KAF)14622465
6CFMM8FLATHEAD-AT COLUMBIA FALLS09-26-2022DISCHARGE (KAF)85893092
7DLGM8CLARK FORK-AT DEER LODGE09-26-2022DISCHARGE (KAF)505099
8DRMM8CLARK FORK-NR DRUMMOND09-26-2022DISCHARGE (KAF)127126101
9RCCM8ROCK CREEK-NEAR CLINTON09-26-2022DISCHARGE (KAF)5050101
10BONM8BLACKFOOT-NEAR BONNER09-26-2022DISCHARGE (KAF)12213591
11ABOM8CLARK FORK-ABOVE MISSOULA09-26-2022DISCHARGE (KAF)31333095
12BITM8BITTERROOT-NEAR MISSOULA09-26-2022DISCHARGE (KAF)16920981
13BELM8CLARK FORK-BELOW MISSOULA09-26-2022DISCHARGE (KAF)48354888
14STRM8ST. REGIS-NEAR ST. REGIS09-26-2022DISCHARGE (KAF)212971
15SRGM8CLARK FORK-AT ST REGIS09-26-2022DISCHARGE (KAF)59671084
16KERM8FLATHEAD-SELI’Š KSANKA QLISPE’ DAM09-26-2022INFLOW (KAF)966127176
17NOXM8CLARK FORK-NOXON RAPIDS DAM09-26-2022INFLOW (KAF)2266293477
18CABI1CLARK FORK-CABINET GORGE DAM09-26-2022INFLOW (KAF)2482327076
19PRTI1PRIEST-NEAR PRIEST RIVER09-26-2022DISCHARGE (KAF)21323989
20ALFW1PEND OREILLE-ALBENI FALLS DAM09-26-2022INFLOW (KAF)2827361278
21HOPI1PEND OREILLE-PEND OREILLE LAKE NR HOPE09-26-2022LAKE ELEVATION (FT)MMM
22COEI1COEUR D ALENE-COEUR D ALENE LAKE09-26-2022INFLOW (KAF)27854851
23SPOW1SPOKANE-AT SPOKANE09-26-2022DISCHARGE (KAF)43077056
24LLKW1SPOKANE-AT LONGLAKE09-26-2022INFLOW (KAF)60494264
25SATI1ST MARIES-NEAR SANTA09-26-2022DISCHARGE (KAF)142851
26SJMI1ST JOE-AT ST MARIES09-26-2022STAGE (FT)MMM
27CIBW1COLUMBIA-AT INTL BOUNDARY09-26-2022DISCHARGE (KAF)179831984491
28LAUW1KETTLE-AT LAURIER09-26-2022DISCHARGE (KAF)9311282
29GCDW1COLUMBIA-GRAND COULEE DAM09-26-2022INFLOW (KAF)187062036592
30CHJW1COLUMBIA-CHIEF JOSEPH DAM09-26-2022INFLOW (KAF)195802124392
31TONW1OKANOGAN-NEAR TONASKET09-26-2022DISCHARGE (KAF)24128186
32PATW1METHOW-NEAR PATEROS09-26-2022DISCHARGE (KAF)8910486
33WELW1COLUMBIA-WELLS DAM09-26-2022INFLOW (KAF)199282182991
34CHDW1CHELAN-LAKE CHELAN DAM09-26-2022INFLOW (KAF)13018072
35RRHW1COLUMBIA-ROCKY REACH DAM09-26-2022INFLOW (KAF)202412224091
36ARDW1ENTIAT-NEAR ARDENVOIR09-26-2022DISCHARGE (KAF)152461
37PESW1WENATCHEE-AT PESHASTIN09-26-2022DISCHARGE (KAF)18029261
38WANW1COLUMBIA-WANAPUM DAM09-26-2022INFLOW (KAF)204432281990
39PRWW1COLUMBIA-PRIEST RAPIDS DAM09-26-2022INFLOW (KAF)204762288789
40KEDW1YAKIMA-KEECHELUS LAKE09-26-2022INFLOW (KAF)435086
41KADW1KACHESS-KACHESS DAM09-26-2022INFLOW (KAF)334573
42EASW1YAKIMA-AT EASTON09-26-2022DISCHARGE (KAF)536779
43CLUW1CLE ELUM-CLE ELUM LAKE09-26-2022INFLOW (KAF)7910476
44TNAW1TEANAWAY-BELOW FORKS09-26-2022DISCHARGE (KAF)123139
45UMTW1YAKIMA-AT UMTANUM09-26-2022DISCHARGE (KAF)21127078
46BUDW1BUMPING-BUMPING LAKE DAM09-26-2022INFLOW (KAF)223466
47CLFW1NACHES-NEAR CLIFFDEL09-26-2022DISCHARGE (KAF)8510184
48RILW1TIETON-RIMROCK LAKE NEAR RIMROCK09-26-2022INFLOW (KAF)486574
49NACW1NACHES-NEAR NACHES09-26-2022DISCHARGE (KAF)5415634
50PARW1YAKIMA-NEAR PARKER09-26-2022DISCHARGE (KAF)28939274
51KIOW1YAKIMA-AT KIONA09-26-2022DISCHARGE (KAF)46562475
52IPDI1HENRYS FORK-ISLAND PARK DAM09-26-2022INFLOW (KAF)10410995
53CHEI1FALL RIVER-NEAR CHESTER09-26-2022DISCHARGE (KAF)11011993
54ANTI1HENRYS FORK-AT ST. ANTHONY09-26-2022DISCHARGE (KAF)30135086
55TEAI1TETON-NEAR ST. ANTHONY09-26-2022DISCHARGE (KAF)8910882
56REXI1HENRYS FORK-AT REXBURG09-26-2022DISCHARGE (KAF)38040295
57JLKW4SNAKE-JACKSON LAKE AT DAM09-26-2022INFLOW (KAF)9411184
58JKSW4SNAKE-NEAR JACKSON09-26-2022DISCHARGE (KAF)33937989
59ALPW4SNAKE-NEAR ALPINE09-26-2022DISCHARGE (KAF)39145786
60PLDI1SF SNAKE-PALISADES DAM09-26-2022INFLOW (KAF)60768688
61HEII1SNAKE-NEAR HEISE09-26-2022DISCHARGE (KAF)694560124
62RIDI1WILLOW CREEK-RIRIE DAM09-26-2022INFLOW (KAF)1410133
63SIFI1SNAKE-AB EAGLE ROCK NR IDAHO FALLS09-26-2022DISCHARGE (KAF)835724115
64SHYI1SNAKE-NEAR SHELLEY09-26-2022DISCHARGE (KAF)819744110
65SNAI1SNAKE-AT BLACKFOOT09-26-2022DISCHARGE (KAF)706603117
66BFTI1SNAKE-NEAR BLACKFOOT09-26-2022DISCHARGE (KAF)727591123
67PIHI1PORTNEUF-AT POCATELLO09-26-2022DISCHARGE (KAF)344479
68AFRI1SNAKE-AMERICAN FALLS RESERVOIR09-26-2022INFLOW (KAF)13811190116
69MILI1SNAKE-AT MILNER09-26-2022DISCHARGE (KAF)0480
70HOTI1BRUNEAU-NEAR HOT SPRINGS09-26-2022DISCHARGE (KAF)192190
71SWAI1SNAKE-BELOW SWAN FALLS09-26-2022DISCHARGE (KAF)1820185398
72HWRI1BIG LOST-AT HOWELL RANCH NEAR CHILLY09-26-2022DISCHARGE (KAF)182283
73MACI1BIG LOST-MACKAY RESERVOIR NEAR MACKAY09-26-2022INFLOW (KAF)334279
74HALI1BIG WOOD-AT HAILEY09-26-2022DISCHARGE (KAF)344086
75MAGI1BIG WOOD-MAGIC DAM09-26-2022INFLOW (KAF)172279
76LWRI1LITTLE WOOD-LITTLE WOOD DAM09-26-2022INFLOW (KAF)81263
77OWYO3OWYHEE-OWYHEE DAM09-26-2022INFLOW (KAF)547671
78ARAI1SF BOISE-ANDERSON RANCH DAM09-26-2022INFLOW (KAF)616791
79LUCI1BOISE-LUCKY PEAK DAM09-26-2022INFLOW (KAF)717892
80BIGI1BOISE-AT GLENWOOD BRIDGE09-26-2022DISCHARGE (KAF)337246
81PARI1BOISE-NEAR PARMA09-26-2022DISCHARGE (KAF)15921176
82WRMO3MALHEUR-WARM SPRINGS DAM09-26-2022INFLOW (KAF)131873
83BERO3MALHEUR-AGENCY VALLEY DAM09-26-2022INFLOW (KAF)101472
84BULO3BULLY CREEK-BULLY CREEK DAM09-26-2022INFLOW (KAF)21177
85CSDI1NF PAYETTE-CASCADE DAM09-26-2022INFLOW (KAF)678876
86DEDI1DEADWOOD-NEAR LOWMAN09-26-2022INFLOW (KAF)151792
87EMMI1PAYETTE-NEAR EMMETT09-26-2022DISCHARGE (KAF)22524691
88WSRI1WEISER-NEAR WEISER09-26-2022DISCHARGE (KAF)315359
89WEII1SNAKE-AT WEISER09-26-2022DISCHARGE (KAF)2580270196
90BRNI1SNAKE-BROWNLEE DAM09-26-2022INFLOW (KAF)2745280298
91WHBI1SALMON-AT WHITEBIRD09-26-2022DISCHARGE (KAF)939103791
92TRYO3GRANDE RONDE-TROY09-26-2022DISCHARGE (KAF)16524069
93ANAW1SNAKE-NEAR ANATONE09-26-2022DISCHARGE (KAF)3432413983
94ORFI1CLEARWATER-AT OROFINO09-26-2022DISCHARGE (KAF)44659475
95DWRI1NF CLEARWATER-DWORSHAK DAM09-26-2022INFLOW (KAF)27046958
96SPDI1CLEARWATER-AT SPALDING09-26-2022DISCHARGE (KAF)906107684
97LGDW1SNAKE-LOWER GRANITE DAM09-26-2022INFLOW (KAF)4339528882
98LGSW1SNAKE-LITTLE GOOSE DAM09-26-2022INFLOW (KAF)4335532881
99LMNW1SNAKE-LOWER MONUMENTAL DAM09-26-2022INFLOW (KAF)4356534282
100IHDW1SNAKE-ICE HARBOR DAM09-26-2022INFLOW (KAF)4356536381
101TCHW1WALLA WALLA-NEAR TOUCHET09-26-2022DISCHARGE (KAF)8481104
102MCDW1COLUMBIA-MCNARY DAM09-26-2022INFLOW (KAF)253102904087
103GIBO3UMATILLA-NEAR GIBBON09-26-2022DISCHARGE (KAF)222685
104PDTO3UMATILLA-AT PENDLETON09-26-2022DISCHARGE (KAF)485390
105MYKO3MCKAY CREEK-NEAR PILOT ROCK09-26-2022DISCHARGE (KAF)1311113
106UMAO3UMATILLA-NEAR UMATILLA09-26-2022DISCHARGE (KAF)8573116
107MONO3NF JOHN DAY-AT MONUMENT09-26-2022DISCHARGE (KAF)446271
108SERO3JOHN DAY-AT SERVICE CK09-26-2022DISCHARGE (KAF)9212275
109JDAO3COLUMBIA-JOHN DAY DAM09-26-2022INFLOW (KAF)262182993088
110MODO3DESCHUTES-AT MOODY NR BIGGS09-26-2022DISCHARGE (KAF)1058125884
111TDAO3COLUMBIA-THE DALLES DAM09-26-2022INFLOW (KAF)267343066887
112PITW1KLICKITAT-NEAR PITT09-26-2022DISCHARGE (KAF)21423392
113HODO3HOOD-NEAR TUCKER BRIDGE09-26-2022DISCHARGE (KAF)204175116
114UNDW1WHITE SALMON-NEAR UNDERWOOD09-26-2022DISCHARGE (KAF)195195100
115BONO3COLUMBIA-BONNEVILLE DAM09-26-2022INFLOW (KAF)273083182486